EW5069 Weather Reports


Display with metric or nautical units.
time (UTC)temp
F
wind
direction
speed
MPH
gust
MPH
rain 1hr
in
rain 24hr
in
rain mn
in
humidity
%
barometer
mb
20260506140043 51 293 0.0 0.0 0.00 0.43 0.05 70 1013.8
20260506134532 51 5 0.0 0.0 0.00 0.43 0.05 72 1013.5
20260506133023 50 321 0.0 0.0 0.00 0.43 0.05 73 1013.2
20260506131532 49 44 0.0 0.0 0.00 0.43 0.05 78 1013.1
20260506130016 48 42 0.0 0.0 0.00 0.43 0.05 87 1013.0
20260506124509 47 13 0.0 0.0 0.00 0.43 0.05 90 1012.9
20260506123005 46 330 0.0 0.0 0.00 0.43 0.05 91 1012.8
20260506121602 46 333 0.0 0.0 0.00 0.43 0.05 91 1012.5
20260506120104 46 327 0.0 0.0 0.00 0.43 0.05 91 1012.4
20260506114555 45 313 0.0 0.0 0.00 0.43 0.05 91 1012.1
20260506113054 44 336 0.0 0.0 0.00 0.43 0.05 91 1012.0
20260506111548 44 22 0.0 0.0 0.00 0.43 0.05 91 1011.5
20260506110045 44 109 0.0 0.0 0.00 0.43 0.05 91 1011.2
20260506104553 44 208 0.0 0.0 0.00 0.43 0.05 91 1011.3
20260506103041 45 360 0.0 0.0 0.00 0.43 0.05 91 1011.0
20260506101541 45 337 0.0 0.0 0.00 0.43 0.05 91 1010.8
20260506100048 45 337 0.0 0.0 0.00 0.43 0.05 91 1010.5
20260506094541 45 337 0.0 0.0 0.00 0.43 0.05 91 1010.7
20260506093038 45 338 0.0 0.0 0.00 0.43 0.05 91 1010.4
20260506091538 45 340 0.0 0.0 0.00 0.43 0.05 91 1010.2
20260506090041 45 341 0.0 0.0 0.00 0.43 0.05 91 1010.4
20260506084539 45 341 0.0 0.0 0.00 0.43 0.05 91 1010.2
20260506083036 45 341 0.0 0.0 0.00 0.43 0.05 91 1010.2
20260506081534 45 340 0.0 0.0 0.00 0.43 0.05 91 1010.1
20260506073033 44 341 0.0 0.0 0.00 0.43 0.05 91 1009.6
20260506071532 44 340 0.0 0.0 0.00 0.43 0.05 91 1009.3
20260506061524 45 341 0.0 0.0 0.02 0.50 0.05 90 1009.7
20260506044600 47 320 0.0 0.0 0.02 0.66 0.01 90 1010.5
20260506043105 47 323 0.0 0.0 0.02 0.66 0.01 90 1010.3
20260506041551 47 323 0.0 0.0 0.02 0.66 0.01 90 1010.1
20260506040047 47 323 0.0 0.0 0.03 0.65 0.00 90 1009.7
20260506034606 47 323 0.0 0.0 0.03 0.64 0.64 90 1009.7
20260506033046 47 323 0.0 0.0 0.04 0.64 0.64 90 1010.0
20260506031551 47 323 0.0 0.0 0.04 0.63 0.63 90 1009.6
20260506030044 47 323 0.0 0.0 0.04 0.62 0.62 90 1009.4
20260506024550 47 323 0.0 0.0 0.03 0.61 0.61 90 1009.3
20260506023051 47 323 0.0 0.0 0.02 0.60 0.60 90 1009.7
20260506021540 46 323 0.0 0.0 0.02 0.59 0.59 90 1009.5
20260506020037 46 323 0.0 0.0 0.01 0.57 0.57 90 1008.9
20260506014537 46 360 0.0 0.0 0.01 0.57 0.57 90 1009.0
20260506013038 46 360 0.0 0.0 0.02 0.57 0.57 90 1008.9
20260506011541 46 360 0.0 0.0 0.01 0.56 0.56 91 1008.9
20260506010051 46 360 0.0 0.0 0.02 0.56 0.56 90 1008.8
20260506004534 46 360 0.0 0.0 0.03 0.56 0.56 90 1008.8
20260506003034 46 205 0.0 0.0 0.04 0.56 0.56 91 1008.8
20260506001532 46 188 0.0 0.0 0.05 0.56 0.56 91 1008.6
20260506000033 47 360 0.0 0.0 0.04 0.55 0.55 90 1008.1
20260505234531 47 213 0.0 0.0 0.04 0.54 0.54 90 1008.4
20260505233039 47 133 0.0 0.0 0.02 0.52 0.52 91 1008.3
20260505231530 47 289 0.0 0.0 0.01 0.51 0.51 90 1008.5
20260505230038 47 328 0.0 0.0 0.01 0.51 0.51 90 1008.5
20260505224532 47 328 0.0 0.0 0.01 0.50 0.50 90 1008.9
20260505223028 46 298 0.0 0.0 0.02 0.50 0.50 90 1008.8
20260505221528 46 309 0.0 0.0 0.02 0.50 0.50 90 1008.9
20260505220028 46 327 0.0 0.0 0.03 0.50 0.50 90 1008.6
20260505214527 46 326 0.0 0.0 0.02 0.49 0.49 90 1008.9
20260505213028 46 340 0.0 0.0 0.02 0.48 0.48 90 1008.7
20260505211524 46 360 0.0 0.0 0.04 0.48 0.48 90 1008.8
20260505210023 46 336 0.0 0.0 0.03 0.47 0.47 90 1008.8
20260505204522 47 350 0.0 0.0 0.03 0.47 0.47 90 1008.7
20260505203030 47 348 0.0 0.0 0.02 0.46 0.46 90 1008.8
20260505201519 48 323 0.0 0.0 0.00 0.44 0.44 88 1008.6
20260505200016 49 360 0.0 0.0 0.01 0.44 0.44 89 1008.3
20260505194516 48 5 0.0 0.0 0.01 0.44 0.44 89 1008.1
20260505193016 48 26 0.0 0.0 0.02 0.44 0.44 90 1008.1
20260505191515 48 360 0.0 0.0 0.03 0.44 0.44 90 1008.1
20260505190024 49 355 0.0 0.0 0.03 0.43 0.43 90 1008.2
20260505184513 48 355 0.0 0.0 0.06 0.43 0.43 89 1008.4
20260505183012 48 355 0.0 0.0 0.07 0.42 0.42 89 1008.5
20260505181511 48 355 0.0 0.0 0.09 0.41 0.41 88 1008.4
20260505180007 49 331 0.0 0.0 0.10 0.40 0.40 88 1008.5
20260505174506 49 22 0.0 0.0 0.09 0.37 0.37 87 1008.7
20260505173004 50 89 0.0 0.0 0.08 0.35 0.35 86 1008.5
20260505171502 50 355 0.0 0.0 0.05 0.32 0.32 84 1008.3
20260505170000 51 88 0.0 0.0 0.03 0.30 0.30 82 1008.3
20260505164600 51 103 0.0 0.0 0.01 0.28 0.28 81 1008.2
20260505163059 51 42 0.0 0.0 0.00 0.27 0.27 78 1008.1
20260505161621 51 355 0.0 0.0 0.00 0.27 0.27 78 1008.2
20260505153055 52 360 0.0 0.0 0.00 0.27 0.27 76 1008.4
20260505151603 52 346 0.0 0.0 0.00 0.27 0.27 76 1008.4